Regional Weather Roundup
Issued by NWS

Home | Current Version | Previous Version | Text Only | Print | Product List | Glossary On
Versions: 1 2 3 4 5 6 7 8 9 10 11 12 13 14 15 16 17 18 19 20 21 22 23 24 25 26 27 28 29 30 31 32 33 34 35 36 37 38 39 40 41 42 43 44 45 46 47 48 49 50
000
ASUS45 KBOU 161610
RWRCO

WEATHER ROUNDUP FOR COLORADO
NATIONAL WEATHER SERVICE DENVER/BOULDER CO
1000 AM MDT MON SEP 16 2019

NOTE: "FAIR" INDICATES FEW OR NO CLOUDS BELOW 12000 FEET WITH NO
SIGNIFICANT WEATHER AND/OR OBSTRUCTIONS TO VISIBILITY.

COZ001>005-013-030-031-161700-
...NORTHWEST COLORADO...

CITY           SKY/WX    TMP DP  RH WIND       PRES   REMARKS
CRAIG          FAIR      63  43  48 CALM      30.17F
HAYDEN         FAIR      61  35  37 E9        30.21F
MEEKER         PTSUNNY   60  43  53 NE3       30.19S
RANGELY        FAIR      68  43  40 E3        30.11S
RABBIT EARS PA CLOUDY    48  34  57 MISG      30.43R
STEAMBOAT SPGS FAIR      54  41  61 CALM      30.22F
WALDEN         NOT AVBL
$$

COZ006>008-011-161700-
...WEST CENTRAL VALLEYS...

CITY           SKY/WX    TMP DP  RH WIND       PRES   REMARKS
GRAND JUNCTION FAIR      67  43  41 CALM      30.14S
MONTROSE       CLOUDY    61  52  72 SE5       30.22S
EAGLE          CLOUDY    62  36  37 SW3       30.23F
RIFLE          FAIR      63  43  48 NW3       30.17R
DELTA          PTSUNNY   69  48  47 CALM      30.19S
NUCLA          NOT AVBL
$$

COZ017>023-064>068-161700-
...SOUTHWEST COLORADO...

CITY           SKY/WX    TMP DP  RH WIND       PRES   REMARKS
DURANGO        CLOUDY    56  54  93 E5        30.27S
CORTEZ         FAIR      66  51  58 VRB3      30.23R
PAGOSA SPRINGS DRIZZLE   54  54 100 NW3       30.33S
TELLURIDE      CLOUDY    55  43  62 CALM      30.39S
WOLF CREEK PAS HVY SNOW  39  39 100 SW10G16   30.57S VSB<1/4
$$

COZ009-010-012-014-032>034-037-058>063-161700-
...CENTRAL COLORADO...

CITY           SKY/WX    TMP DP  RH WIND       PRES   REMARKS
ASPEN          PTSUNNY   59  45  59 CALM      30.27S
BUENA VISTA    FAIR      61  45  56 SE8       30.29F
COPPER MTN     CLOUDY    50  32  50 N3        30.52S
BERTHOUD PASS  CLOUDY    43  28  56 N9        30.54R
COTTONWOOD PAS FAIR      55  45  67 SE9       30.39S
GUNNISON       PTSUNNY   57  50  77 SW6       30.31
GRANBY         FAIR      56  33  42 CALM      30.30F
KREMMLING      PTSUNNY   55  32  41 CALM      30.27S
LEADVILLE      CLOUDY    51  38  60 W3        30.39S HAZE
MONARCH PASS   CLOUDY    43  39  87 MISG      30.62R
SALIDA         FAIR      62  46  55 S3        30.34S
SUNLIGHT       NOT AVBL
WILKERSON PASS FAIR      46  39  76 W8G18     30.49S
$$

COZ069>075-161700-
...SAN LUIS VALLEY/SANGRE DE CRISTO MOUNTAINS...

CITY           SKY/WX    TMP DP  RH WIND       PRES   REMARKS
ALAMOSA        CLOUDY    56  51  84 S8        30.30S
DEL NORTE      CLOUDY    55  48  80 CALM      30.34R
LA VETA PASS   CLOUDY    46  43  87 SW10G17   30.41R
SAGUACHE       CLOUDY    54  52  94 CALM      30.34R
$$

COZ035-036-038>040-161700-
...NORTHERN COLORADO FRONT RANGE...

CITY           SKY/WX    TMP DP  RH WIND       PRES   REMARKS
DENVER INTL AP FAIR      77  32  19 W7        30.03S
AURORA         NOT AVBL
FRONT RANGE AP PTSUNNY   79  34  19 W12       30.05R
ERIE MUNI ARPT FAIR      75  34  22 SW5       30.06S
BOULDER MUN AP FAIR      72  36  26 S5        30.01F
CENTENNIAL     FAIR      78  41  26 SW12      30.07R
BROOMFIELD     PTSUNNY   73  36  25 S7        30.05S
FORT COLLINS   FAIR      74  37  26 S6        30.00F
LONGMONT       FAIR      77  38  24 S5        30.01F
$$

COZ041-046-047-076>085-087-088-161700-
...PIKES PEAK/PALMER DIVIDE AND SOUTHERN FOOTHILLS...

CITY           SKY/WX    TMP DP  RH WIND       PRES   REMARKS
COLO. SPRINGS  FAIR      74  42  31 SE7       30.11F
A. F. ACADEMY  NOT AVBL
SCHRIEVER AFB  NOT AVBL
CHEYENNE MTN   NOT AVBL
ELLICOTT       NOT AVBL
FALCON           N/A    N/A N/A N/A MISG        N/A
FORT CARSON    NOT AVBL
LIMON          FAIR      78  45  30 SW18G30   30.04F
MONUMENT HILL  NOT AVBL
CANON CITY     FAIR      77  46  33 W17G25    30.09S
WALSENBURG     NOT AVBL
TRINIDAD       FAIR      75  50  41 NW9G20    30.14S
$$

COZ042>045-048>051-090-091-161700-
...NORTHEAST COLORADO...

CITY           SKY/WX    TMP DP  RH WIND       PRES   REMARKS
GREELEY ARPT   FAIR      70  49  47 W5        29.99S
AKRON          FAIR      77  43  29 SW14      29.96S
BURLINGTON     FAIR      82  50  32 S28G40    30.02F
WRAY           FAIR      79  48  34 S16G24    29.94F
YUMA           FAIR      77  30  18 S24G32    29.95S
STERLING       FAIR      70  52  52 SW7       29.92F
HOLYOKE        NOT AVBL
FORT MORGAN    FAIR      67  47  47 SW5       29.98R
$$

COZ086-089-092>099-161700-
...SOUTHEAST COLORADO...

CITY           SKY/WX    TMP DP  RH WIND       PRES   REMARKS
PUEBLO         FAIR      81  47  30 VRB7      30.04F
LA JUNTA       FAIR      83  48  29 S22G30    30.03F
LAMAR          FAIR      84  48  28 SW29G39   30.01F
SPRINGFIELD      N/A     79  50  36 SW24G41   30.10F
$$



USA.gov is the U.S. government's official web portal to all federal, state and local government web resources and services.